Weather History for Hamilton, OH

Change the Weather History Date:

Saturday, July 20, 2013

  Actual Average (KCVG) Record (KCVG)
Temperature  
Mean Temperature 81 °F 76 °F  
Max Temperature 90 °F 86 °F 105 °F (1934)
Min Temperature 71 °F 66 °F 50 °F (1947)
Degree Days  
Heating Degree Days 0 0  
Month to date heating degree days 0  
Since 1 June heating degree days 15  
Since 1 July heating degree days 0  
Cooling Degree Days 16 11  
Month to date cooling degree days 218  
Year to date cooling degree days 538  
Since 1 June cooling degree days 444  
Growing Degree Days 31 (Base 50)    
Moisture  
Dew Point 71 °F    
Average Humidity 74    
Maximum Humidity 87    
Minimum Humidity 59    
Precipitation  
Precipitation 0.03 in 0.12 in 3.77 in (1925)
Month to date precipitation 2.40  
Year to date precipitation 25.02  
Snow  
Snow 0.00 in 0.00 in 0.00 in ()
Month to date snowfall 0.0  
Since 1 June snowfall 0.0  
Since 1 July snowfall 0.0  
Snow Depth -    
Sea Level Pressure  
Sea Level Pressure 29.90 in    
Wind  
Wind Speed 5 mph (WSW)    
Max Wind Speed 10 mph    
Max Gust Speed 17 mph    
Visibility 9 miles    
Events Rain , Thunderstorm    
T = Trace of Precipitation, MM = Missing Value Source: NWS Daily Summary

Daily Weather History Graph

Daily Weather History Graph

Search for Another Location

Airport:

Trip Planner

Search our weather history database for the weather conditions in past years. The results will help you decide how hot, cold, wet, or windy it might be!

Date:

Astronomy

Jul. 20, 2013 Rise Set
Actual Time 6:27 AM EDT 9:00 PM EDT
Civil Twilight 5:56 AM EDT 9:31 PM EDT
Nautical Twilight 5:18 AM EDT 10:09 PM EDT
Astronomical Twilight 4:35 AM EDT 10:52 PM EDT
Moon 7:03 PM EDT (7/20) 4:06 AM EDT (7/20)
Length of Visible Light 15h 34m
Length of Day
14h 32m
Waxing Gibbous, 93% of the Moon is Illuminated
Jul 20
Waxing Gibbous
Jul 22
Full
Jul 29
Last Quarter
Aug 6
New
Aug 14
First Quarter

Hourly Weather History & Observations

Time (EDT) Temp. Heat Index Dew Point Humidity Pressure Visibility Wind Dir Wind Speed Gust Speed Precip Events Conditions
12:53 AM 78.1 °F - 72.0 °F 81% 29.93 in 7.0 mi WSW 3.5 mph - N/A   Clear
1:53 AM 78.1 °F - 71.1 °F 79% 29.93 in 8.0 mi SW 4.6 mph - N/A   Clear
2:53 AM 77.0 °F - 71.1 °F 82% 29.91 in 8.0 mi SW 5.8 mph - N/A   Clear
3:53 AM 77.0 °F - 71.1 °F 82% 29.89 in 9.0 mi SW 4.6 mph - N/A   Clear
4:53 AM 75.9 °F - 71.1 °F 85% 29.88 in 10.0 mi Variable 4.6 mph - N/A   Clear
5:53 AM 75.9 °F - 70.0 °F 82% 29.87 in 10.0 mi SW 4.6 mph - N/A   Clear
6:53 AM 75.0 °F - 71.1 °F 87% 29.89 in 9.0 mi Calm Calm - N/A   Clear
7:53 AM 78.1 °F - 71.1 °F 79% 29.91 in 10.0 mi Calm Calm - N/A   Clear
8:53 AM 80.1 °F 83.8 °F 72.0 °F 76% 29.91 in 10.0 mi Variable 4.6 mph - N/A   Clear
9:53 AM 82.0 °F 86.7 °F 72.0 °F 71% 29.92 in 10.0 mi Variable 5.8 mph - N/A   Clear
10:53 AM 84.9 °F 90.7 °F 72.0 °F 65% 29.91 in 10.0 mi Variable 6.9 mph 16.1 mph N/A   Clear
11:53 AM 88.0 °F 95.6 °F 73.0 °F 61% 29.91 in 10.0 mi SW 8.1 mph - N/A   Partly Cloudy
12:53 PM 88.0 °F 95.6 °F 73.0 °F 61% 29.91 in 10.0 mi WSW 10.4 mph 17.3 mph N/A   Scattered Clouds
1:53 PM 89.1 °F 99.1 °F 75.0 °F 63% 29.87 in 10.0 mi Variable 4.6 mph - N/A   Partly Cloudy
2:53 PM 88.0 °F 96.5 °F 73.9 °F 63% 29.86 in 10.0 mi SW 6.9 mph - N/A   Mostly Cloudy
3:48 PM 89.6 °F 98.2 °F 73.4 °F 59% 29.86 in 10.0 mi WSW 10.4 mph 16.1 mph N/A Thunderstorm Mostly Cloudy
3:53 PM 88.0 °F 95.6 °F 73.0 °F 61% 29.84 in 10.0 mi SW 9.2 mph - N/A Thunderstorm Mostly Cloudy
4:06 PM 82.4 °F 89.5 °F 75.2 °F 79% 29.87 in 2.5 mi Variable 5.8 mph - 0.03 in Rain , Thunderstorm Light Thunderstorms and Rain
4:15 PM 84.2 °F 90.9 °F 73.4 °F 70% 29.87 in 10.0 mi West 6.9 mph - 0.03 in Thunderstorm Mostly Cloudy
4:53 PM 78.1 °F - 70.0 °F 76% 29.90 in 10.0 mi Variable 4.6 mph - 0.03 in Thunderstorm Overcast
5:09 PM 78.8 °F - 69.8 °F 74% 29.90 in 10.0 mi Calm Calm - N/A   Mostly Cloudy
5:53 PM 78.1 °F - 66.0 °F 66% 29.89 in 10.0 mi NW 8.1 mph - N/A   Clear
6:53 PM 78.1 °F - 64.9 °F 64% 29.89 in 10.0 mi NW 5.8 mph - N/A   Clear
7:53 PM 75.9 °F - 66.0 °F 71% 29.89 in 10.0 mi Calm Calm - N/A   Clear
8:53 PM 73.0 °F - 68.0 °F 84% 29.92 in 10.0 mi NW 3.5 mph - N/A   Partly Cloudy
9:53 PM 73.0 °F - 66.0 °F 79% 29.93 in 10.0 mi Calm Calm - N/A   Clear
10:53 PM 73.0 °F - 66.9 °F 81% 29.93 in 10.0 mi Calm Calm - N/A   Mostly Cloudy
11:53 PM 71.1 °F - 66.9 °F 87% 29.94 in 10.0 mi Calm Calm - N/A   Clear